| time (UTC) | temp F | wind direction | speed knots | gust knots | rain 1hr in | rain 24hr in | rain mn in | humidity % | barometer mb |
| 20260505032109 | 53 | 45 | 0.9 | 0.9 | 0.00 | 0.00 | 0.00 | 68 | 1003.9 |
| 20260505031607 | 54 | 45 | 0.0 | 0.9 | 0.00 | 0.00 | 0.00 | 69 | 1004.1 |
| 20260505031103 | 54 | 347 | 1.7 | 1.7 | 0.00 | 0.00 | 0.00 | 67 | 1004.0 |
| 20260505030600 | 53 | 42 | 0.9 | 0.9 | 0.00 | 0.00 | 0.00 | 70 | 1004.0 |
| 20260505030055 | 53 | 46 | 0.0 | 0.0 | 0.00 | 0.00 | 0.00 | 74 | 1004.0 |
| 20260505025551 | 52 | 39 | 0.9 | 0.9 | 0.00 | 0.00 | 0.00 | 74 | 1004.1 |
| 20260505025051 | 52 | 19 | 0.9 | 0.9 | 0.00 | 0.00 | 0.00 | 75 | 1004.0 |
| 20260505024547 | 52 | 17 | 0.9 | 0.9 | 0.00 | 0.00 | 0.00 | 75 | 1004.2 |
| 20260505024044 | 52 | 6 | 1.7 | 1.7 | 0.00 | 0.00 | 0.00 | 75 | 1004.0 |
| 20260505023541 | 53 | 32 | 0.9 | 0.9 | 0.00 | 0.00 | 0.00 | 75 | 1004.0 |
| 20260505023039 | 53 | 13 | 0.9 | 0.9 | 0.00 | 0.00 | 0.00 | 75 | 1004.1 |
| 20260505022536 | 53 | 39 | 0.0 | 0.9 | 0.00 | 0.00 | 0.00 | 74 | 1004.2 |
| 20260505022033 | 53 | 34 | 0.9 | 0.9 | 0.00 | 0.00 | 0.00 | 78 | 1004.1 |
| 20260505021530 | 54 | 42 | 0.0 | 0.9 | 0.00 | 0.00 | 0.00 | 77 | 1004.0 |
| 20260505021026 | 54 | 51 | 0.9 | 0.9 | 0.00 | 0.00 | 0.00 | 72 | 1004.1 |
| 20260505020520 | 54 | 51 | 0.0 | 0.9 | 0.00 | 0.00 | 0.00 | 73 | 1004.4 |
| 20260505020018 | 54 | 47 | 0.0 | 0.9 | 0.00 | 0.00 | 0.00 | 71 | 1004.1 |
| 20260505015515 | 54 | 53 | 0.0 | 0.0 | 0.00 | 0.00 | 0.00 | 68 | 1004.1 |
| 20260505015012 | 54 | 47 | 0.9 | 0.9 | 0.00 | 0.00 | 0.00 | 68 | 1004.3 |
| 20260505014509 | 54 | 52 | 0.0 | 0.0 | 0.00 | 0.00 | 0.00 | 70 | 1004.2 |
| 20260505014006 | 54 | 41 | 0.0 | 0.9 | 0.00 | 0.00 | 0.00 | 72 | 1004.2 |
| 20260505013503 | 54 | 38 | 0.9 | 0.9 | 0.00 | 0.00 | 0.00 | 74 | 1004.2 |
| 20260505013000 | 55 | 53 | 0.0 | 0.0 | 0.00 | 0.00 | 0.00 | 72 | 1004.0 |
| 20260505012458 | 55 | 47 | 0.9 | 0.9 | 0.00 | 0.00 | 0.00 | 71 | 1004.1 |
| 20260505011955 | 55 | 36 | 0.9 | 0.9 | 0.00 | 0.00 | 0.00 | 72 | 1004.3 |
| 20260505011450 | 56 | 31 | 0.9 | 0.9 | 0.00 | 0.00 | 0.00 | 70 | 1004.0 |
| 20260505010948 | 56 | 51 | 0.0 | 0.0 | 0.00 | 0.00 | 0.00 | 69 | 1004.0 |
| 20260505010443 | 57 | 43 | 0.0 | 0.9 | 0.00 | 0.00 | 0.00 | 66 | 1004.0 |
| 20260505005940 | 57 | 47 | 0.0 | 0.9 | 0.00 | 0.00 | 0.00 | 68 | 1003.8 |
| 20260505005436 | 57 | 49 | 0.9 | 0.9 | 0.00 | 0.00 | 0.00 | 68 | 1004.0 |
| 20260505004934 | 57 | 57 | 0.0 | 0.9 | 0.00 | 0.00 | 0.00 | 65 | 1003.6 |
| 20260505004431 | 57 | 57 | 0.0 | 0.0 | 0.00 | 0.00 | 0.00 | 63 | 1003.8 |
| 20260505003928 | 58 | 57 | 0.0 | 0.0 | 0.00 | 0.00 | 0.00 | 62 | 1003.7 |
| 20260505003425 | 59 | 58 | 0.9 | 0.9 | 0.00 | 0.00 | 0.00 | 62 | 1003.6 |
| 20260505002921 | 59 | 51 | 0.9 | 0.9 | 0.00 | 0.00 | 0.00 | 55 | 1003.5 |
| 20260505002417 | 59 | 57 | 0.0 | 0.0 | 0.00 | 0.00 | 0.00 | 55 | 1003.4 |
| 20260505001916 | 60 | 58 | 0.0 | 0.0 | 0.00 | 0.00 | 0.00 | 51 | 1003.5 |
| 20260505001413 | 60 | 58 | 0.0 | 0.0 | 0.00 | 0.00 | 0.00 | 50 | 1003.5 |
| 20260505000910 | 60 | 65 | 0.0 | 0.0 | 0.00 | 0.00 | 0.00 | 51 | 1003.5 |
| 20260505000408 | 60 | 67 | 0.0 | 0.0 | 0.00 | 0.00 | 0.00 | 51 | 1003.5 |
| 20260504235904 | 62 | 67 | 0.0 | 0.0 | 0.00 | 0.00 | 0.00 | 49 | 1003.3 |
| 20260504235402 | 62 | 57 | 0.0 | 0.0 | 0.00 | 0.00 | 0.00 | 47 | 1003.4 |
| 20260504234857 | 63 | 56 | 0.0 | 0.9 | 0.00 | 0.00 | 0.00 | 49 | 1003.3 |
| 20260504234355 | 64 | 52 | 0.0 | 0.0 | 0.00 | 0.00 | 0.00 | 46 | 1003.1 |
| 20260504233852 | 64 | 66 | 0.0 | 0.0 | 0.00 | 0.00 | 0.00 | 46 | 1003.3 |
| 20260504233348 | 66 | 70 | 0.0 | 0.0 | 0.00 | 0.00 | 0.00 | 44 | 1002.7 |
| 20260504232844 | 66 | 87 | 0.0 | 0.9 | 0.00 | 0.00 | 0.00 | 42 | 1002.8 |
| 20260504232342 | 66 | 274 | 1.7 | 4.3 | 0.00 | 0.00 | 0.00 | 42 | 1002.8 |
| 20260504231838 | 67 | 199 | 0.9 | 1.7 | 0.00 | 0.00 | 0.00 | 42 | 1003.1 |
| 20260504231335 | 67 | 58 | 0.0 | 0.0 | 0.00 | 0.00 | 0.00 | 41 | 1002.7 |
| 20260504230831 | 68 | 71 | 1.7 | 1.7 | 0.00 | 0.00 | 0.00 | 41 | 1002.8 |
| 20260504230329 | 68 | 62 | 0.9 | 1.7 | 0.00 | 0.00 | 0.00 | 40 | 1002.7 |
| 20260504225828 | 68 | 237 | 1.7 | 1.7 | 0.00 | 0.00 | 0.00 | 40 | 1002.6 |
| 20260504225324 | 69 | 42 | 1.7 | 1.7 | 0.00 | 0.00 | 0.00 | 39 | 1002.7 |
| 20260504224821 | 69 | 350 | 2.6 | 2.6 | 0.00 | 0.00 | 0.00 | 39 | 1002.5 |
| 20260504224318 | 69 | 323 | 2.6 | 2.6 | 0.00 | 0.00 | 0.00 | 39 | 1002.7 |
| 20260504223815 | 69 | 230 | 1.7 | 2.6 | 0.00 | 0.00 | 0.00 | 39 | 1002.9 |
| 20260504223310 | 69 | 349 | 1.7 | 1.7 | 0.00 | 0.00 | 0.00 | 41 | 1002.5 |
| 20260504222807 | 69 | 232 | 2.6 | 2.6 | 0.00 | 0.00 | 0.00 | 39 | 1002.3 |
| 20260504222305 | 69 | 1 | 1.7 | 1.7 | 0.00 | 0.00 | 0.00 | 40 | 1002.4 |
| 20260504221802 | 69 | 244 | 1.7 | 2.6 | 0.00 | 0.00 | 0.00 | 39 | 1002.5 |
| 20260504221259 | 69 | 112 | 1.7 | 1.7 | 0.00 | 0.00 | 0.00 | 39 | 1002.5 |
| 20260504220755 | 69 | 211 | 2.6 | 4.3 | 0.00 | 0.00 | 0.00 | 38 | 1002.5 |
| 20260504220252 | 69 | 219 | 2.6 | 2.6 | 0.00 | 0.00 | 0.00 | 39 | 1002.5 |
| 20260504215750 | 69 | 339 | 0.9 | 1.7 | 0.00 | 0.00 | 0.00 | 40 | 1002.6 |
| 20260504215246 | 69 | 259 | 2.6 | 2.6 | 0.00 | 0.00 | 0.00 | 38 | 1002.5 |
| 20260504214742 | 69 | 195 | 0.9 | 0.9 | 0.00 | 0.00 | 0.00 | 39 | 1002.5 |
| 20260504214238 | 69 | 23 | 1.7 | 1.7 | 0.00 | 0.00 | 0.00 | 39 | 1002.7 |
| 20260504213735 | 70 | 277 | 1.7 | 1.7 | 0.00 | 0.00 | 0.00 | 39 | 1002.6 |
| 20260504213231 | 70 | 221 | 2.6 | 2.6 | 0.00 | 0.00 | 0.00 | 38 | 1002.5 |
| 20260504212729 | 70 | 208 | 2.6 | 4.3 | 0.00 | 0.00 | 0.00 | 37 | 1002.6 |
| 20260504212225 | 70 | 56 | 1.7 | 1.7 | 0.00 | 0.00 | 0.00 | 37 | 1002.6 |
| 20260504211723 | 70 | 38 | 2.6 | 2.6 | 0.00 | 0.00 | 0.00 | 38 | 1002.5 |
| 20260504211219 | 70 | 4 | 0.9 | 1.7 | 0.00 | 0.00 | 0.00 | 40 | 1002.3 |
| 20260504210717 | 70 | 93 | 0.9 | 0.9 | 0.00 | 0.00 | 0.00 | 40 | 1002.7 |
| 20260504210214 | 70 | 334 | 2.6 | 4.3 | 0.00 | 0.00 | 0.00 | 39 | 1002.6 |
| 20260504205711 | 70 | 157 | 2.6 | 2.6 | 0.00 | 0.00 | 0.00 | 39 | 1002.7 |
| 20260504205208 | 70 | 228 | 3.5 | 4.3 | 0.00 | 0.00 | 0.00 | 39 | 1002.9 |
| 20260504204706 | 70 | 230 | 3.5 | 6.1 | 0.00 | 0.00 | 0.00 | 39 | 1002.8 |
| 20260504204205 | 72 | 254 | 3.5 | 6.1 | 0.00 | 0.00 | 0.00 | 38 | 1002.8 |
| 20260504203703 | 72 | 51 | 1.7 | 2.6 | 0.00 | 0.00 | 0.00 | 37 | 1002.8 |
| 20260504203201 | 72 | 224 | 1.7 | 1.7 | 0.00 | 0.00 | 0.00 | 36 | 1002.9 |
| 20260504202700 | 72 | 287 | 2.6 | 4.3 | 0.00 | 0.00 | 0.00 | 38 | 1002.8 |
| 20260504202158 | 71 | 286 | 0.9 | 1.7 | 0.00 | 0.00 | 0.00 | 37 | 1003.1 |
| 20260504201654 | 70 | 232 | 2.6 | 2.6 | 0.00 | 0.00 | 0.00 | 39 | 1003.1 |
| 20260504201152 | 71 | 315 | 1.7 | 1.7 | 0.00 | 0.00 | 0.00 | 39 | 1003.1 |
| 20260504200649 | 71 | 285 | 0.9 | 0.9 | 0.00 | 0.00 | 0.00 | 38 | 1003.2 |
| 20260504200146 | 70 | 185 | 1.7 | 2.6 | 0.00 | 0.00 | 0.00 | 39 | 1003.5 |
| 20260504195642 | 71 | 305 | 1.7 | 1.7 | 0.00 | 0.00 | 0.00 | 38 | 1003.4 |
| 20260504195138 | 72 | 241 | 2.6 | 2.6 | 0.00 | 0.00 | 0.00 | 39 | 1003.4 |
| 20260504194635 | 70 | 227 | 4.3 | 6.1 | 0.00 | 0.00 | 0.00 | 39 | 1003.6 |
| 20260504194131 | 69 | 301 | 2.6 | 2.6 | 0.00 | 0.00 | 0.00 | 39 | 1003.5 |
| 20260504193627 | 71 | 298 | 3.5 | 4.3 | 0.00 | 0.00 | 0.00 | 39 | 1003.5 |
| 20260504193126 | 71 | 10 | 1.7 | 2.6 | 0.00 | 0.00 | 0.00 | 38 | 1003.4 |
| 20260504192623 | 72 | 28 | 1.7 | 2.6 | 0.00 | 0.00 | 0.00 | 38 | 1003.7 |
| 20260504192121 | 70 | 323 | 1.7 | 2.6 | 0.00 | 0.00 | 0.00 | 38 | 1003.6 |
| 20260504191620 | 71 | 290 | 3.5 | 4.3 | 0.00 | 0.00 | 0.00 | 38 | 1003.7 |
| 20260504191115 | 71 | 285 | 2.6 | 2.6 | 0.00 | 0.00 | 0.00 | 39 | 1003.6 |
| 20260504190612 | 71 | 243 | 1.7 | 2.6 | 0.00 | 0.00 | 0.00 | 38 | 1003.8 |
| 20260504190108 | 71 | 286 | 3.5 | 5.2 | 0.00 | 0.00 | 0.00 | 38 | 1003.8 |
| 20260504185605 | 71 | 16 | 2.6 | 2.6 | 0.00 | 0.00 | 0.00 | 39 | 1003.8 |
| 20260504185101 | 71 | 241 | 2.6 | 2.6 | 0.00 | 0.00 | 0.00 | 38 | 1003.8 |
| 20260504184557 | 71 | 301 | 4.3 | 5.2 | 0.00 | 0.00 | 0.00 | 40 | 1003.8 |
| 20260504184052 | 69 | 203 | 2.6 | 4.3 | 0.00 | 0.00 | 0.00 | 41 | 1003.9 |
| 20260504183550 | 68 | 255 | 1.7 | 1.7 | 0.00 | 0.00 | 0.00 | 44 | 1003.9 |
| 20260504183048 | 68 | 295 | 2.6 | 5.2 | 0.00 | 0.00 | 0.00 | 42 | 1004.1 |
| 20260504182544 | 67 | 237 | 2.6 | 2.6 | 0.00 | 0.00 | 0.00 | 43 | 1004.0 |
| 20260504182042 | 68 | 269 | 1.7 | 1.7 | 0.00 | 0.00 | 0.00 | 42 | 1003.8 |
| 20260504181539 | 68 | 163 | 2.6 | 4.3 | 0.00 | 0.00 | 0.00 | 43 | 1004.1 |
| 20260504181037 | 68 | 248 | 0.9 | 1.7 | 0.00 | 0.00 | 0.00 | 42 | 1004.1 |
| 20260504180536 | 68 | 0 | 1.7 | 2.6 | 0.00 | 0.00 | 0.00 | 43 | 1003.9 |
| 20260504180034 | 68 | 38 | 2.6 | 2.6 | 0.00 | 0.00 | 0.00 | 42 | 1003.9 |
| 20260504175531 | 67 | 227 | 1.7 | 2.6 | 0.00 | 0.00 | 0.00 | 42 | 1004.1 |
| 20260504175028 | 68 | 331 | 1.7 | 1.7 | 0.00 | 0.00 | 0.00 | 45 | 1004.1 |
| 20260504174526 | 68 | 181 | 1.7 | 2.6 | 0.00 | 0.00 | 0.00 | 42 | 1004.1 |
| 20260504174022 | 67 | 290 | 2.6 | 2.6 | 0.00 | 0.00 | 0.00 | 45 | 1004.1 |
| 20260504173519 | 66 | 314 | 4.3 | 4.3 | 0.00 | 0.00 | 0.00 | 43 | 1004.0 |
| 20260504173017 | 67 | 218 | 2.6 | 5.2 | 0.00 | 0.00 | 0.00 | 42 | 1004.1 |
| 20260504172513 | 68 | 77 | 3.5 | 4.3 | 0.00 | 0.00 | 0.00 | 42 | 1004.2 |
| 20260504172009 | 68 | 45 | 1.7 | 2.6 | 0.00 | 0.00 | 0.00 | 44 | 1004.1 |
| 20260504171506 | 66 | 190 | 3.5 | 4.3 | 0.00 | 0.00 | 0.00 | 44 | 1004.4 |
| 20260504171003 | 67 | 15 | 1.7 | 1.7 | 0.00 | 0.00 | 0.00 | 42 | 1004.5 |
| 20260504170459 | 66 | 290 | 4.3 | 5.2 | 0.00 | 0.00 | 0.00 | 44 | 1004.3 |
| 20260504160419 | 62 | 192 | 0.9 | 1.7 | 0.00 | 0.00 | 0.00 | 47 | 1005.1 |
| 20260504150843 | 59 | 99 | 2.6 | 2.6 | 0.00 | 0.00 | 0.00 | 47 | 1005.5 |
| 20260504150339 | 59 | 207 | 1.7 | 1.7 | 0.00 | 0.00 | 0.00 | 49 | 1005.5 |
| 20260504141310 | 59 | 9 | 1.7 | 1.7 | 0.00 | 0.00 | 0.00 | 48 | 1005.5 |
| 20260504140806 | 58 | 93 | 0.9 | 0.9 | 0.00 | 0.00 | 0.00 | 50 | 1005.8 |
| 20260504140302 | 58 | 259 | 1.7 | 1.7 | 0.00 | 0.00 | 0.00 | 48 | 1005.8 |
| 20260504130731 | 56 | 241 | 2.6 | 2.6 | 0.00 | 0.00 | 0.00 | 50 | 1006.1 |
| 20260504130226 | 56 | 215 | 5.2 | 7.0 | 0.00 | 0.00 | 0.00 | 50 | 1006.3 |
| 20260504120150 | 54 | 34 | 0.9 | 1.7 | 0.00 | 0.00 | 0.00 | 53 | 1006.3 |
| 20260504110618 | 48 | 58 | 0.9 | 0.9 | 0.00 | 0.00 | 0.00 | 65 | 1006.4 |
| 20260504110114 | 47 | 132 | 0.0 | 0.9 | 0.00 | 0.00 | 0.00 | 67 | 1006.2 |
| 20260504100539 | 44 | 48 | 0.0 | 0.0 | 0.00 | 0.00 | 0.00 | 73 | 1006.3 |
| 20260504081933 | 40 | 45 | 0.0 | 0.9 | 0.00 | 0.00 | 0.00 | 89 | 1006.5 |
| 20260504081430 | 40 | 46 | 0.0 | 0.0 | 0.00 | 0.00 | 0.00 | 90 | 1006.3 |
| 20260504080926 | 41 | 45 | 0.0 | 0.0 | 0.00 | 0.00 | 0.00 | 90 | 1006.3 |
| 20260504080423 | 41 | 45 | 0.9 | 0.9 | 0.00 | 0.00 | 0.00 | 89 | 1006.5 |
| 20260504070350 | 43 | 52 | 0.9 | 0.9 | 0.00 | 0.00 | 0.00 | 86 | 1006.5 |
| 20260504050738 | 43 | 42 | 0.0 | 0.0 | 0.00 | 0.00 | 0.00 | 76 | 1006.9 |
| 20260504050235 | 43 | 47 | 0.0 | 0.0 | 0.00 | 0.00 | 0.00 | 75 | 1006.6 |
| 20260504045732 | 43 | 47 | 0.0 | 0.0 | 0.00 | 0.00 | 0.00 | 74 | 1006.6 |
| 20260504045227 | 44 | 47 | 0.0 | 0.0 | 0.00 | 0.00 | 0.00 | 74 | 1007.2 |
| 20260504044725 | 44 | 47 | 0.0 | 0.0 | 0.00 | 0.00 | 0.00 | 72 | 1006.9 |
| 20260504044222 | 44 | 45 | 0.0 | 0.0 | 0.00 | 0.00 | 0.00 | 72 | 1007.1 |
| 20260504043720 | 44 | 45 | 0.0 | 0.0 | 0.00 | 0.00 | 0.00 | 72 | 1007.2 |
| 20260504043216 | 44 | 42 | 0.0 | 0.9 | 0.00 | 0.00 | 0.00 | 71 | 1007.4 |
| 20260504042714 | 45 | 44 | 0.0 | 0.0 | 0.00 | 0.00 | 0.00 | 70 | 1007.2 |
| 20260504042210 | 45 | 43 | 0.0 | 0.9 | 0.00 | 0.00 | 0.00 | 69 | 1007.4 |
| 20260504041706 | 45 | 32 | 0.9 | 0.9 | 0.00 | 0.00 | 0.00 | 68 | 1007.5 |
| 20260504041202 | 45 | 37 | 0.0 | 0.0 | 0.00 | 0.00 | 0.00 | 68 | 1007.7 |
| 20260504040659 | 45 | 33 | 0.9 | 0.9 | 0.00 | 0.00 | 0.00 | 67 | 1007.6 |
| 20260504040156 | 45 | 23 | 0.9 | 0.9 | 0.00 | 0.00 | 0.00 | 66 | 1007.5 |
| 20260504035652 | 45 | 4 | 0.9 | 1.7 | 0.00 | 0.00 | 0.00 | 66 | 1007.8 |
| 20260504035150 | 45 | 25 | 0.9 | 0.9 | 0.00 | 0.00 | 0.00 | 66 | 1007.6 |
| 20260504034647 | 46 | 332 | 1.7 | 1.7 | 0.00 | 0.00 | 0.00 | 66 | 1007.6 |
| 20260504034144 | 45 | 327 | 1.7 | 1.7 | 0.00 | 0.00 | 0.00 | 65 | 1007.4 |
| 20260504033642 | 45 | 22 | 0.9 | 0.9 | 0.00 | 0.00 | 0.00 | 66 | 1007.6 |
| 20260504033139 | 45 | 342 | 1.7 | 1.7 | 0.00 | 0.00 | 0.00 | 67 | 1007.5 |
| 20260504032635 | 45 | 351 | 0.9 | 1.7 | 0.00 | 0.00 | 0.00 | 66 | 1007.6 |